FW5319 Weather Reports


Display with metric or nautical units.
time (UTC)temp
F
wind
direction
speed
MPH
gust
MPH
rain 1hr
in
rain 24hr
in
rain mn
in
humidity
%
barometer
mb
20260505210039 75 354 6.0 11.0 0.00 0.00 0.00 45 1014.2
20260505201650 71 8 6.0 12.0 0.00 0.00 0.00 49 1014.4
20260505200032 71 356 7.0 12.0 0.00 0.00 0.00 50 1014.6
20260505194612 70 3 6.0 11.0 0.00 0.00 0.00 51 1014.7
20260505193029 70 345 7.0 12.0 0.00 0.00 0.00 52 1014.7
20260505190105 69 342 6.0 13.0 0.00 0.00 0.00 54 1014.8
20260505184609 68 322 6.0 11.0 0.00 0.00 0.00 55 1014.9
20260505183030 68 344 6.0 11.0 0.00 0.00 0.00 57 1014.9
20260505180037 66 336 6.0 11.0 0.00 0.00 0.00 59 1014.9
20260505174530 66 354 5.0 10.0 0.00 0.00 0.00 59 1014.9
20260505173029 67 344 3.0 8.0 0.00 0.00 0.00 60 1014.8
20260505170029 65 23 2.0 5.0 0.00 0.00 0.00 64 1014.9
20260505164530 64 17 1.0 5.0 0.00 0.00 0.00 66 1014.9
20260505163042 63 356 2.0 5.0 0.00 0.00 0.00 68 1014.9
20260505161530 62 355 2.0 6.0 0.00 0.00 0.00 69 1014.9
20260505160107 62 45 2.0 5.0 0.00 0.00 0.00 73 1014.9
20260505153031 59 80 0.0 5.0 0.00 0.00 0.00 80 1014.6
20260505151532 56 131 0.0 3.0 0.00 0.00 0.00 84 1014.5
20260505124531 50 120 2.0 4.0 0.00 0.00 0.00 84 1013.0
20260505121529 51 164 2.0 4.0 0.00 0.00 0.00 83 1012.7
20260505120030 51 148 3.0 7.0 0.00 0.00 0.00 82 1012.7
20260505114533 52 119 1.0 4.0 0.00 0.00 0.00 81 1012.7
20260505113146 52 89 1.0 5.0 0.00 0.00 0.00 80 1012.6
20260505111531 54 113 0.0 3.0 0.00 0.00 0.00 78 1012.5
20260505101608 55 113 0.0 3.0 0.00 0.00 0.00 76 1012.1
20260505100108 56 360 0.0 2.0 0.00 0.00 0.00 75 1012.1
20260505094530 56 357 1.0 5.0 0.00 0.00 0.00 75 1012.0
20260505091530 56 64 0.0 2.0 0.00 0.00 0.00 73 1011.9
20260505090031 58 356 2.0 5.0 0.00 0.00 0.00 71 1011.8
20260505084645 58 337 3.0 4.0 0.00 0.00 0.00 71 1011.8
20260505080107 58 320 3.0 7.0 0.00 0.00 0.00 70 1011.8
20260505074530 58 336 0.0 5.0 0.00 0.00 0.00 69 1011.8
20260505071531 58 128 0.0 3.0 0.00 0.00 0.00 66 1011.5
20260505064528 60 157 1.0 6.0 0.00 0.00 0.00 63 1011.4
20260505063028 62 300 2.0 8.0 0.00 0.00 0.00 60 1011.4
20260505054530 63 313 4.0 10.0 0.00 0.00 0.00 56 1011.2
20260505051534 66 308 4.0 10.0 0.00 0.00 0.00 52 1010.9
20260505041530 68 304 6.0 16.0 0.00 0.00 0.00 46 1010.4
20260505040044 69 309 8.0 16.0 0.00 0.00 0.00 46 1010.1
20260505033145 69 311 7.0 14.0 0.00 0.00 0.00 45 1009.8
20260505030033 71 305 8.0 14.0 0.00 0.00 0.00 43 1009.3
20260505024606 72 306 9.0 16.0 0.00 0.00 0.00 42 1009.2
20260505023030 73 303 12.0 21.0 0.00 0.00 0.00 40 1009.0
20260505014532 76 304 13.0 23.0 0.00 0.00 0.00 36 1008.9
20260505013031 77 298 12.0 22.0 0.00 0.00 0.00 35 1008.9
20260505004540 0 0 0.0 0.0 0.00 0.00 0.00 100
20260505001528 79 351 11.0 20.0 0.00 0.00 0.00 38 1009.1
20260505000106 80 347 12.0 18.0 0.00 0.00 0.00 37 1009.1
20260504234531 81 342 10.0 17.0 0.00 0.00 0.00 37 1009.1
20260504233032 81 351 10.0 15.0 0.00 0.00 0.00 36 1009.2
20260504231607 81 355 10.0 16.0 0.00 0.00 0.00 35 1009.4
20260504230030 82 353 10.0 15.0 0.00 0.00 0.00 34 1009.5
20260504224531 82 342 9.0 14.0 0.00 0.00 0.00 34 1009.7
20260504223030 82 351 11.0 15.0 0.00 0.00 0.00 33 1009.8
20260504220029 83 328 7.0 14.0 0.00 0.00 0.00 31 1010.0